Location: Headcorn
(51.1500°N, 0.6167°E)
Time: 01:08:06
(UTC+00:00)

Daily predictions for brighter satellites

Satellite Brightness Start Highest point End
(mag) Time Altitude Azimuth Time Altitude Azimuth Time Altitude Azimuth
Cosmos 2151 Rocket 3.9 00:00:08 10° N 00:04:38 60° ENE 00:06:04 39° SE
Cosmos 1766 3.4 00:01:57 10° N 00:05:54 67° ENE 00:06:41 52° SE
Okean 3 3.5 00:05:48 51° SW 00:06:46 73° WNW 00:11:00 10° N
Cosmos 1867 3.7 00:03:46 27° SW 00:06:50 76° NW 00:12:21 10° NE
NOSS 2-1 (C) 4.1 00:06:29 10° NW 00:11:11 70° SW 00:14:12 31° SSE
COSMOS 2487 2.2 00:11:18 10° NNW 00:14:43 87° ENE 00:14:48 84° SE
Cosmos 2227 Rocket 3.6 00:11:38 10° NNW 00:16:51 36° NE 00:22:02 10° ESE
NOSS 2-1 (D) 4.1 00:13:19 10° NW 00:18:03 64° SW 00:20:50 32° SSE
Helios 1A 3.9 00:16:33 27° ESE 00:18:19 43° ENE 00:22:16 10° N
Cosmos 2297 Rocket 3.2 00:14:17 10° NNW 00:19:45 45° NE 00:25:10 10° ESE
Cosmos 1934 Rocket 4.0 00:19:49 10° NNW 00:25:54 64° W 00:28:27 35° SSW
Cosmos 1470 3.7 00:22:37 10° N 00:26:22 41° ENE 00:27:46 29° ESE
Cosmos 724 4.4 00:24:16 34° SSW 00:27:06 77° SE 00:33:23 10° NE
Cosmos 1378 4.1 00:26:31 32° W 00:27:13 36° WNW 00:30:42 10° N
USA 81 4.0 00:22:14 10° N 00:27:34 86° E 00:29:41 38° S
Cosmos 1726 3.2 00:26:17 10° N 00:29:46 38° ENE 00:30:59 29° ESE
YAOGAN 11 4.3 00:28:55 35° SE 00:30:34 63° ENE 00:34:50 10° N
Meteor 1-23 Rocket 4.3 00:28:39 37° SSW 00:31:09 85° WNW 00:37:01 10° NNE
RESURS DK-1 4.4 00:33:18 10° WNW 00:35:19 15° W 00:35:19 15° W
Cosmos 1400 Rocket 2.8 00:35:20 10° NNW 00:39:28 86° ENE 00:40:29 50° SSE
Cosmos 1758 4.4 00:36:24 10° N 00:40:18 40° ENE 00:42:14 24° SE
Cosmos 1842 3.3 00:42:19 52° SSE 00:43:05 69° E 00:46:58 10° NNE
Cosmos 1269 Rocket 4.3 00:39:18 10° NNW 00:44:26 51° WSW 00:46:04 37° SSW
Cosmos 1378 Rocket 3.7 00:43:15 42° SSE 00:44:32 64° E 00:48:49 10° NNE
Cosmos 1315 Rocket 4.1 00:41:48 10° N 00:45:31 35° ENE 00:47:45 20° SE
Cosmos 2251 Rocket 4.0 00:42:14 10° NNW 00:47:26 58° ENE 00:51:33 16° SE
Thor Agena Rocket 4.2 00:43:17 10° N 00:48:19 47° WNW 00:50:54 26° SW
COSMOS 2455 2.8 00:44:39 10° NW 00:50:44 86° SW 00:55:11 19° SSE
Cosmos 2221 Rocket 4.0 00:49:20 38° SW 00:50:49 57° WNW 00:55:20 10° N
Cosmos 44 Rocket 4.3 00:46:29 10° NW 00:51:02 31° WSW 00:51:31 30° SW
ISS -3.7 00:51:31 21° W 00:53:42 81° N 00:57:05 10° E
Okean 2 3.6 00:53:24 42° SSE 00:54:39 65° E 00:58:47 10° NNE
Meteor 2-20 4.5 00:55:02 31° S 00:58:11 80° E 01:04:22 10° NNE
Cosmos 1727 Rocket 4.1 00:55:08 29° S 00:58:31 75° E 01:04:54 10° NNE
SeaSat 1 2.4 00:54:30 10° NNE 00:59:29 79° WNW 01:01:43 33° SW
SL-24 R/B 4.2 00:59:02 41° SSW 01:00:23 61° WSW 01:04:37 10° NNW
Cosmos 2219 3.4 00:58:18 10° NNW 01:04:02 75° ENE 01:09:19 12° SE
Okean 1 Rocket 3.0 01:00:04 10° NNW 01:04:28 73° W 01:05:54 41° S
SL-16 R/B 2.9 01:00:16 13° SE 01:05:48 63° ENE 01:12:00 10° NNW
CZ-4 R/B 3.8 01:02:19 10° NNE 01:07:13 80° ESE 01:09:13 35° S
EO 1 Del DPAF 4.1 01:07:14 10° N 01:10:43 37° WNW 01:11:46 30° WSW
Cosmos 1674 Rocket 3.8 01:12:00 36° SW 01:13:35 59° WNW 01:18:02 10° N
Cosmos 1707 2.9 01:12:57 40° SSE 01:14:09 65° E 01:17:58 10° NNE
Cosmos 2369 Rocket 4.2 01:11:14 10° W 01:15:39 23° NW 01:20:04 10° NNE
Cosmos 371 Rocket 4.1 01:14:23 25° SSE 01:16:39 41° ESE 01:21:15 10° NE
Meteor 2-10 4.3 01:12:20 10° NNW 01:17:36 54° W 01:19:48 32° SSW
ADEOS II 3.8 01:14:38 10° NE 01:18:56 25° E 01:23:07 10° SE
Helios 1B rocket 3.4 01:16:39 10° NNE 01:20:34 39° E 01:22:33 24° SSE
ATLAS CENTAUR R/B 3.0 01:17:59 12° W 01:20:50 26° NNW 01:24:11 10° NNE
USA 215 3.6 01:17:22 20° SSE 01:21:30 41° SW 01:27:39 10° WNW
NPP 4.4 01:19:19 10° NNE 01:24:30 44° E 01:28:00 19° SSE
Cosmos 1908 4.2 01:22:04 10° N 01:25:49 45° ENE 01:28:34 17° SE
CZ-2D R/B 2.6 01:20:34 10° NNE 01:25:54 54° E 01:29:09 23° S
APEX 4.2 01:25:20 10° NNW 01:29:32 61° NE 01:34:48 10° SE
Cosmos 1459 Rocket 3.9 01:23:31 10° N 01:29:49 85° W 01:34:06 21° S
Cosmos 1544 Rocket 4.4 01:28:11 10° N 01:32:27 48° ENE 01:36:15 13° SSE
Resurs 1-4 Rocket 2.4 01:27:34 10° NNE 01:32:49 62° ESE 01:36:01 24° S
Lacrosse 5 1.8 01:29:52 24° WSW 01:32:57 89° NNW 01:38:05 10° ENE
USA 281 3.2 01:28:44 19° S 01:33:37 64° WSW 01:40:10 10° NNW
Meteor 1-16 Rocket 4.4 01:32:35 10° N 01:38:35 80° ENE 01:43:41 14° SSE
Cosmos 2016 Rocket 4.1 01:33:03 10° N 01:39:21 81° ENE 01:44:39 15° SSE
Cosmos 1953 2.4 01:35:26 10° N 01:39:26 75° E 01:41:52 23° SSE
Lacrosse 4 Rocket 3.2 01:37:27 16° SSE 01:39:48 24° ESE 01:43:20 10° ENE
Cosmos 1697 Rocket 3.6 01:37:11 19° SSE 01:40:43 40° ESE 01:45:55 10° NE
Meteor 2-11 Rocket 4.4 01:35:43 10° NNW 01:41:55 86° W 01:46:44 17° S
Cosmos 407 Rocket 3.9 01:36:43 10° NNW 01:42:04 68° ENE 01:47:25 10° SSE
CZ-3B R/B 4.0 01:19:03 10° SW 01:42:37 72° SSE 01:47:37 10° ENE
Cosmos 1455 Rocket 3.0 01:38:16 10° N 01:42:38 88° W 01:45:16 24° S
Cosmos 2173 Rocket 4.0 01:39:39 10° NNW 01:45:46 66° W 01:49:59 21° S
Cosmos 2061 Rocket 4.1 01:41:49 10° N 01:48:12 87° E 01:53:55 13° S
MOZ.5/SAFIR/RUBIN 5/SL-8 4.3 01:46:29 28° SSW 01:48:21 40° W 01:52:45 10° NNW
Timation 2 Rocket 3.9 01:42:33 10° NW 01:48:26 59° WSW 01:53:37 14° S
USA 276 2.1 01:52:28 40° SW 01:53:19 58° SSE 01:56:28 10° E
Cosmos 1980 Rocket 3.7 01:48:51 11° SSE 01:53:24 28° ESE 01:58:10 10° NE
Helios 1A 4.3 01:53:09 21° WSW 01:54:03 23° W 01:57:22 10° NW
GP-B 4.2 01:52:26 10° NNE 01:56:40 41° E 02:00:53 10° SSE
TSX-5 3.9 01:56:58 10° NW 02:00:14 45° WSW 02:02:15 23° S
Cosmos 2227 Rocket 2.4 01:55:40 10° NW 02:01:09 52° WSW 02:05:43 15° S
Meteor 1-29 3.4 01:58:34 10° NNE 02:01:55 54° ESE 02:03:52 22° S
Cosmos 1470 4.3 01:59:14 10° NW 02:02:08 20° W 02:03:04 18° WSW
Cosmos 2297 Rocket 2.7 01:58:31 10° NW 02:03:46 39° WSW 02:07:14 19° SSW
Cosmos 1726 3.7 02:02:00 10° NW 02:04:40 19° W 02:05:25 18° WSW
Cosmos 1674 2.6 02:06:17 26° SSW 02:08:22 77° W 02:12:13 10° N
SL-19 R/B 4.2 02:03:26 10° NNE 02:09:08 83° ESE 02:13:14 18° SSW
MINOTAUR 4 R/B 4.1 02:07:15 25° S 02:09:10 57° W 02:12:42 10° NNW
In-Cosmos 22 4.3 02:08:31 21° SSW 02:12:16 63° WNW 02:17:44 10° N
CZ-4C R/B 4.2 02:08:58 10° SSE 02:13:06 54° ENE 02:17:06 10° N
Cosmos 2369 4.3 02:08:56 16° S 02:13:21 53° ESE 02:18:55 10° NE
SL-14 R/B 4.0 02:13:00 13° SSE 02:16:15 49° E 02:20:07 10° NNE
Cosmos 1802 Rocket 4.3 02:10:40 10° NNW 02:16:33 49° W 02:21:07 17° SSW
Cosmos 2082 3.7 02:11:02 10° NNW 02:16:43 71° WSW 02:22:23 10° SSE
Cosmos 2056 Rocket 4.3 02:12:37 13° S 02:16:55 44° ESE 02:21:47 10° NE
ARGOS Delta rocket 3.8 02:12:47 10° NNE 02:17:25 89° E 02:21:12 17° SSW
UNK 4.3 02:16:25 21° SSW 02:19:03 39° W 02:23:22 10° NNW
Cosmos 1023 Rocket 4.5 02:14:16 10° NNW 02:19:29 71° WSW 02:24:42 10° SSE
Cosmos 1975 Rocket 3.5 02:17:06 21° SW 02:19:40 47° WNW 02:23:53 10° N
Cosmos 304 Rocket 3.8 02:17:54 19° SSW 02:21:20 82° ESE 02:26:11 10° NNE
Cosmos 1315 Rocket 4.1 02:18:41 10° NW 02:21:55 24° W 02:23:26 19° WSW
Cosmos 2123 Rocket 4.0 02:19:49 17° SSW 02:24:45 72° WNW 02:31:00 10° N
DELTA 2 DEB (DPAF) 4.1 02:21:12 10° S 02:25:36 72° WSW 02:30:05 10° NNW
Cosmos 1656 3.9 02:22:25 18° SW 02:26:30 59° NW 02:31:59 10° NNE
Cosmos 1626 2.0 02:24:28 19° SSW 02:27:01 85° W 02:30:44 10° N
Cosmos 1371 Rocket 4.3 02:25:13 14° S 02:29:39 63° ESE 02:34:48 10° NNE
ISS -3.6 02:27:09 10° W 02:30:27 51° SSW 02:33:44 10° SE
Aureole 2 Rocket 3.2 02:30:12 10° NNW 02:32:46 40° ENE 02:35:20 10° SE
IRS-1D 3.7 02:28:59 10° NNE 02:34:22 79° ESE 02:39:28 11° SSW
Cosmos 1300 2.7 02:31:52 10° N 02:35:43 89° E 02:39:31 10° S
COSMOS 2455 4.2 02:31:49 10° WNW 02:35:50 19° WSW 02:38:15 15° SW
SeaSat 1 4.4 02:32:47 10° N 02:36:23 21° NW 02:39:59 10° W
Cosmos 1140 Rocket 3.6 02:32:01 10° NNW 02:37:06 53° WSW 02:42:10 10° S
IDEFIX/ARIANE 42P 3.1 02:35:16 10° NNE 02:40:30 60° E 02:45:42 10° S
Cosmos 1025 Rocket 3.4 02:41:17 16° SSW 02:44:37 50° WNW 02:48:54 10° N
Cosmos 2219 4.5 02:43:20 10° NW 02:47:37 22° WSW 02:51:10 13° SW
SL-16 R/B 3.5 02:45:21 13° SW 02:49:51 29° W 02:55:12 10° NW
SL-08 R/B 3.8 02:45:46 10° SSE 02:50:23 63° ENE 02:54:59 10° N
Cosmos 1455 4.3 02:48:13 10° N 02:51:39 30° ENE 02:55:04 10° SE
Meteor 2-10 Rocket 4.1 02:46:08 10° N 02:51:55 70° ENE 02:57:28 10° SSE
Helios 1B rocket 3.8 02:52:13 10° N 02:55:39 26° WNW 02:58:51 11° WSW
Cosmos 2322 Rocket 4.4 02:52:03 10° SSE 02:56:08 21° E 03:00:16 10° NE
Cosmos 2263 Rocket 2.3 02:51:09 10° NNW 02:56:50 89° ENE 03:02:31 10° SSE
Cosmos 371 Rocket 4.4 02:53:02 11° WSW 02:57:10 33° NW 03:01:38 10° N
ADEOS II 2.3 02:53:50 10° N 02:58:59 58° WNW 03:04:03 10° SW
ATLAS CENTAUR R/B 4.0 02:59:14 10° NW 03:00:59 13° N 03:02:46 10° NNE
Iridium 2 3.8 02:57:31 11° SSW 03:01:09 57° W 03:04:56 10° N
Cosmos 1190 Rocket 4.5 02:56:36 10° NW 03:01:28 40° WSW 03:06:18 10° S
Meteor 1-24 Rocket 3.8 02:56:00 10° S 03:01:32 80° E 03:06:56 10° NNE
ARIANE 5 R/B 3.2 02:56:33 10° NNE 03:01:38 55° E 03:06:36 10° S
Cosmos 332 Rocket 4.5 02:57:41 12° SW 03:01:57 44° WNW 03:06:37 10° NNE
ADEOS Rocket 3.7 02:54:39 10° S 03:02:03 57° W 03:09:45 10° NNW
Cosmos 2084 4.1 03:00:07 10° NW 03:04:31 65° NE 03:09:00 10° ESE
CZ-2D R/B 3.3 03:01:04 10° N 03:05:40 29° WNW 03:10:13 10° WSW
Cosmos 1340 2.6 03:05:57 10° SSW 03:09:42 82° WNW 03:13:29 10° N
Resurs 1-4 Rocket 3.5 03:08:01 10° N 03:12:16 25° WNW 03:16:30 10° WSW
Meteor 1-28 Rocket 4.2 03:09:12 10° SSW 03:12:26 28° W 03:15:43 10° NNW
Cosmos 1420 Rocket 4.1 03:07:29 10° SSW 03:12:40 81° ESE 03:17:53 10° NNE
Cosmos 1464 Rocket 4.1 03:06:40 10° N 03:12:52 86° E 03:19:06 10° S
CZ-4B R/B 3.8 03:08:34 10° NNE 03:13:34 71° ESE 03:18:39 10° S
Cosmos 2058 Rocket 4.1 03:09:16 10° N 03:13:41 51° ENE 03:18:05 10° SSE
Cosmos 1953 4.4 03:13:40 10° WNW 03:15:13 12° W 03:16:45 10° WSW
Lacrosse 5 2.9 03:11:27 10° W 03:16:22 45° N 03:21:17 10° ENE
Cosmos 1606 Rocket 3.5 03:12:46 10° NNW 03:17:12 79° W 03:21:37 10° S
Cosmos 1726 Rocket 3.7 03:12:48 10° N 03:17:13 84° E 03:21:37 10° S
Lacrosse 4 Rocket 1.9 03:13:48 10° SW 03:18:12 56° NW 03:22:32 10° NNE
Cosmos 2228 3.1 03:15:52 10° NNW 03:20:06 62° W 03:24:21 10° S
Meteor 2-5 Rocket 3.9 03:14:57 10° SSW 03:20:35 63° WNW 03:26:10 10° N
CENTAUR R/B 4.4 03:16:29 10° SSE 03:21:11 25° ESE 03:26:31 10° ENE
Cosmos 2034 Rocket 4.3 03:16:31 10° N 03:22:55 75° E 03:29:14 10° SSE
Cosmos 1697 Rocket 3.4 03:19:19 10° WSW 03:24:40 44° NW 03:30:03 10° NNE
Cosmos 676 Rocket 4.5 03:20:23 10° NW 03:25:17 41° WSW 03:30:13 10° S
USA 276 2.1 03:26:16 10° W 03:29:27 69° S 03:32:36 10° ESE
